Haast (NZHT)

Aerodrome — Elev 22
New Zealand
S043.51.50.300 E169.02.27.400
Loading chart...

Current Weather

NZHT 161600Z 02015KT 14KM RA OVC060 09/07 Q0983 RMK AUTO NZQN VATSIM USE ONLY

Published 1 days 1 hours 40 minutes ago

Airport Activity

Loading chart...
Loading chart...

Positions

CallsignRadio Name / Freq / Voice Room / TypeFrequencyVoice RoomType
NZCH-D_CTR Christchurch Control
129.200
nzch-d_ctr
129.200nzch-d_ctr
NZCH-S_CTR Christchurch Control
129.300
nzch-s_ctr
129.300nzch-s_ctr
UNICOM NZZC UNICOM
122.800
unicom_nzzc
122.800unicom_nzzc

Charts

Other Charts

Haast